Location: Alessandria
(44.9000°N, 8.6170°E)
Time: 03:41:23
(UTC+01:00)

ISS - Visible Passes

Search period start: 23 January 2019 00:00
Search period end: 02 February 2019 00:00
Orbit: 404 x 411 km, 51.6° (Epoch: 23 January)

Date Brightness Start Highest point End Pass type
(mag) Time Alt. Az. Time Alt. Az. Time Alt. Az.
23 Jan -2.6 18:37:17 10° SSW 18:40:10 28° SE 18:41:04 24° ESE visible
23 Jan -0.5 20:13:21 10° W 20:13:48 13° W 20:13:48 13° W visible
24 Jan -3.4 19:21:53 10° WSW 19:24:46 63° W 19:24:46 63° W visible
25 Jan -3.7 18:30:34 10° SW 18:33:50 64° SSE 18:35:40 23° ENE visible
25 Jan -0.8 20:07:32 10° W 20:08:24 16° WNW 20:08:24 16° WNW visible
26 Jan -3.0 19:15:53 10° W 19:19:04 42° NNW 19:19:13 41° NNW visible
27 Jan -3.5 18:24:19 10° WSW 18:27:35 62° NNW 18:30:00 17° NE visible
27 Jan -0.9 20:01:44 10° WNW 20:02:43 16° NW 20:02:43 16° NW visible
28 Jan -2.5 19:10:03 10° WNW 19:12:59 29° NNW 19:13:26 28° N visible
29 Jan -2.7 18:18:20 10° W 18:21:25 36° NNW 18:24:08 13° NE visible
29 Jan -1.1 19:55:46 10° NW 19:56:51 16° NW 19:56:51 16° NW visible
30 Jan -2.3 19:04:08 10° WNW 19:06:56 25° N 19:07:31 23° NNE visible
31 Jan -2.3 18:12:25 10° WNW 18:15:19 27° N 18:18:11 10° NE visible
31 Jan -1.4 19:49:35 10° NW 19:50:54 19° NW 19:50:54 19° NW visible
01 Feb -2.3 18:58:03 10° NW 19:00:51 25° N 19:01:34 23° NNE visible
